View from above orbital plane
|
View from above satellite
|
Ground track
|
The orbit data is extracted from the following two-line orbital elements,
1 00082U 61004B 21107.54625899 -.00000111 00000-0 -42353-4 0 9996
2 00082 38.8536 152.3663 1175540 111.2423 261.7728 12.26040091845137
Epoch (UTC): | 17 April 2021 13:06:36 |
Eccentricity: | 0.1175540 |
inclination: | 38.8536° |
perigee height: | 632 km |
apogee height: | 2500 km |
right ascension of ascending node: | 152.3663° |
argument of perigee: | 111.2423° |
revolutions per day: | 12.26040091 |
mean anomaly at epoch: | 261.7728° |
orbit number at epoch: | 84513 |
The dashed part of the orbit path shows where the satellite is in the earth's shadow,
|
|